CTV425 WALL-WIII

Flight info

Callsign CTV425
Flight time 1h 43m
Altitude 36000
Route AJAMA T14 AKSOX
Aircraft A320/M-SDE3FGHIRWY/LB1

Departure

Time 2026-05-04 11:19
Airport Sultan Aji Muhammad Sulaiman Sepinggan International Airport (WALL)

Arrival

Time 2026-05-04 13:02
Airport Soekarno-Hatta International Airport (WIII)
Time Latitude Longitude Altitude Speed Heading
2026-05-04 10:58 -1.26298 116.89886 21 ft 0 kts 336°
2026-05-04 11:08 -1.26299 116.89887 21 ft 2 kts 336°
2026-05-04 11:10 -1.26353 116.89947 21 ft 0 kts 248°
2026-05-04 11:12 -1.26364 116.89922 23 ft 5 kts 247°
2026-05-04 11:12 -1.26375 116.89894 21 ft 10 kts 247°
2026-05-04 11:12 -1.26385 116.89870 21 ft 10 kts 247°
2026-05-04 11:13 -1.26409 116.89814 21 ft 8 kts 247°
2026-05-04 11:13 -1.26443 116.89772 21 ft 10 kts 201°
2026-05-04 11:13 -1.26506 116.89771 21 ft 10 kts 208°
2026-05-04 11:13 -1.26555 116.89682 21 ft 16 kts 246°
2026-05-04 11:14 -1.26600 116.89578 21 ft 16 kts 248°
2026-05-04 11:14 -1.26644 116.89472 21 ft 17 kts 247°
2026-05-04 11:14 -1.26688 116.89364 21 ft 17 kts 248°
2026-05-04 11:16 -1.27065 116.88472 21 ft 18 kts 247°
2026-05-04 11:16 -1.27115 116.88385 23 ft 13 kts 224°
2026-05-04 11:16 -1.27194 116.88371 22 ft 11 kts 161°
2026-05-04 11:17 -1.27245 116.88416 22 ft 8 kts 144°
2026-05-04 11:17 -1.27262 116.88439 20 ft 3 kts 83°
2026-05-04 11:19 -1.25177 116.93342 1843 ft 161 kts 67°
2026-05-04 11:19 -1.24713 116.94437 1979 ft 182 kts 67°
2026-05-04 11:19 -1.24173 116.95713 2004 ft 213 kts 68°
2026-05-04 11:19 -1.23747 116.97179 2405 ft 225 kts 92°
2026-05-04 11:20 -1.24254 116.98639 2896 ft 235 kts 131°
2026-05-04 11:20 -1.25586 116.99642 3341 ft 246 kts 154°
2026-05-04 11:20 -1.27173 117.00316 4032 ft 250 kts 160°
2026-05-04 11:20 -1.28821 117.00897 4736 ft 254 kts 161°
2026-05-04 11:22 -1.40719 117.05576 9480 ft 273 kts 157°
2026-05-04 11:22 -1.41901 117.06049 9725 ft 283 kts 163°
2026-05-04 11:23 -1.43901 117.06210 10035 ft 296 kts 189°
2026-05-04 11:23 -1.45870 117.05455 10195 ft 316 kts 217°
2026-05-04 11:24 -1.49888 116.91692 12807 ft 364 kts 259°
2026-05-04 11:25 -1.50365 116.89192 13359 ft 368 kts 259°
2026-05-04 11:25 -1.50866 116.86673 13900 ft 371 kts 258°
2026-05-04 11:25 -1.51439 116.84151 14430 ft 374 kts 256°
2026-05-04 11:26 -1.52742 116.79072 15448 ft 381 kts 255°
2026-05-04 11:27 -1.57436 116.60601 18704 ft 402 kts 256°
2026-05-04 11:28 -1.58110 116.57881 19127 ft 406 kts 256°
2026-05-04 11:28 -1.58791 116.55130 19545 ft 409 kts 256°
2026-05-04 11:28 -1.59479 116.52355 19962 ft 413 kts 256°
2026-05-04 11:28 -1.60175 116.49563 20363 ft 416 kts 256°
2026-05-04 11:29 -1.60872 116.46784 20763 ft 419 kts 256°
2026-05-04 11:29 -1.61583 116.43955 21140 ft 422 kts 256°
2026-05-04 11:29 -1.62303 116.41097 21498 ft 425 kts 256°
2026-05-04 11:29 -1.63023 116.38224 21858 ft 428 kts 256°
2026-05-04 11:31 -1.68185 116.17549 24066 ft 447 kts 256°
2026-05-04 11:33 -1.73549 115.96093 25968 ft 460 kts 256°
2026-05-04 11:33 -1.74326 115.92978 26222 ft 462 kts 256°
2026-05-04 11:33 -1.75089 115.89899 26464 ft 463 kts 256°
2026-05-04 11:34 -1.75863 115.86768 26704 ft 465 kts 256°
2026-05-04 11:34 -1.76644 115.83625 26932 ft 466 kts 256°
2026-05-04 11:34 -1.77429 115.80478 27151 ft 468 kts 256°
2026-05-04 11:34 -1.78222 115.77321 27368 ft 469 kts 256°
2026-05-04 11:35 -1.79019 115.74148 27600 ft 471 kts 256°
2026-05-04 11:35 -1.79814 115.70970 27811 ft 472 kts 256°
2026-05-04 11:35 -1.80610 115.67781 28022 ft 473 kts 256°
2026-05-04 11:35 -1.81407 115.64583 28224 ft 475 kts 256°
2026-05-04 11:36 -1.82208 115.61380 28418 ft 476 kts 256°
2026-05-04 11:36 -1.83016 115.58161 28621 ft 478 kts 255°
2026-05-04 11:36 -1.83823 115.54928 28813 ft 479 kts 256°
2026-05-04 11:36 -1.84628 115.51695 28995 ft 480 kts 256°
2026-05-04 11:37 -1.85433 115.48454 29161 ft 481 kts 256°
2026-05-04 11:37 -1.86256 115.45207 29337 ft 482 kts 253°
2026-05-04 11:37 -1.87432 115.42069 29496 ft 483 kts 244°
2026-05-04 11:37 -1.89079 115.39153 29673 ft 482 kts 234°
2026-05-04 11:38 -1.91085 115.36520 29836 ft 483 kts 230°
2026-05-04 11:38 -1.93215 115.33862 30000 ft 483 kts 230°
2026-05-04 11:38 -1.95317 115.31238 30139 ft 485 kts 230°
2026-05-04 11:38 -1.97396 115.28639 30313 ft 485 kts 230°
2026-05-04 11:39 -1.99523 115.25973 30544 ft 484 kts 230°
2026-05-04 11:39 -2.01620 115.23345 30756 ft 483 kts 230°
2026-05-04 11:40 -2.14189 115.07620 31977 ft 481 kts 230°
2026-05-04 11:41 -2.16251 115.05044 32181 ft 481 kts 230°
2026-05-04 11:41 -2.18369 115.02400 32398 ft 481 kts 230°
2026-05-04 11:41 -2.20427 114.99831 32607 ft 480 kts 230°
2026-05-04 11:41 -2.22517 114.97220 32827 ft 479 kts 230°
2026-05-04 11:42 -2.24596 114.94616 33028 ft 479 kts 230°
2026-05-04 11:42 -2.26674 114.92011 33233 ft 478 kts 230°
2026-05-04 11:42 -2.28748 114.89408 33430 ft 478 kts 230°
2026-05-04 11:42 -2.30825 114.86808 33629 ft 478 kts 230°
2026-05-04 11:43 -2.32901 114.84212 33813 ft 478 kts 230°
2026-05-04 11:43 -2.37034 114.79042 33868 ft 474 kts 230°
2026-05-04 11:44 -2.41145 114.73892 33867 ft 473 kts 230°
2026-05-04 11:44 -2.45252 114.68747 33869 ft 473 kts 230°
2026-05-04 11:45 -2.49361 114.63598 33870 ft 473 kts 230°
2026-05-04 11:45 -2.53471 114.58456 33868 ft 473 kts 230°
2026-05-04 11:46 -2.57583 114.53311 33865 ft 473 kts 230°
2026-05-04 11:46 -2.61684 114.48157 33864 ft 473 kts 230°
2026-05-04 11:47 -2.65787 114.43018 33860 ft 473 kts 230°
2026-05-04 11:47 -2.69875 114.37901 33868 ft 474 kts 230°
2026-05-04 11:48 -2.74022 114.32715 33871 ft 474 kts 230°
2026-05-04 11:48 -2.78106 114.27603 33871 ft 474 kts 230°
2026-05-04 11:49 -2.82219 114.22446 33875 ft 474 kts 230°
2026-05-04 11:49 -2.86325 114.17288 33873 ft 474 kts 230°
2026-05-04 11:50 -2.90434 114.12138 33871 ft 473 kts 230°
2026-05-04 11:50 -2.94538 114.06987 33874 ft 473 kts 230°
2026-05-04 11:51 -2.98647 114.01836 33875 ft 473 kts 230°
2026-05-04 11:51 -3.02751 113.96685 33871 ft 473 kts 230°
2026-05-04 11:52 -3.06853 113.91539 33869 ft 473 kts 230°
2026-05-04 11:52 -3.10962 113.86392 33867 ft 473 kts 230°
2026-05-04 11:53 -3.15076 113.81245 33864 ft 473 kts 230°
2026-05-04 11:53 -3.19177 113.76094 33864 ft 473 kts 230°
2026-05-04 11:55 -3.35566 113.55511 33871 ft 473 kts 230°
2026-05-04 11:56 -3.39662 113.50361 33869 ft 473 kts 230°
2026-05-04 11:56 -3.43761 113.45214 33864 ft 473 kts 230°
2026-05-04 11:57 -3.47862 113.40061 33862 ft 473 kts 230°
2026-05-04 11:57 -3.51969 113.34910 33864 ft 473 kts 230°
2026-05-04 11:58 -3.54827 113.31324 33866 ft 473 kts 230°
2026-05-04 11:58 -3.58747 113.26389 33865 ft 473 kts 230°
2026-05-04 11:59 -3.62733 113.21367 33866 ft 473 kts 230°
2026-05-04 11:59 -3.66720 113.16359 33865 ft 473 kts 230°
2026-05-04 12:00 -3.70739 113.11319 33860 ft 474 kts 230°
2026-05-04 12:00 -3.74743 113.06285 33864 ft 474 kts 230°
2026-05-04 12:01 -3.78847 113.01119 33867 ft 474 kts 230°
2026-05-04 12:02 -3.93197 112.83063 33870 ft 474 kts 230°
2026-05-04 12:03 -3.97302 112.77893 33871 ft 475 kts 231°
2026-05-04 12:03 -4.01412 112.72705 33872 ft 475 kts 231°
2026-05-04 12:04 -4.05537 112.67532 33877 ft 475 kts 231°
2026-05-04 12:04 -4.09660 112.62356 33878 ft 476 kts 231°
2026-05-04 12:05 -4.13081 112.58040 33876 ft 476 kts 231°
2026-05-04 12:05 -4.17047 112.52744 33874 ft 476 kts 239°
2026-05-04 12:06 -4.19620 112.46650 33876 ft 476 kts 251°
2026-05-04 12:06 -4.21752 112.40364 33874 ft 477 kts 251°
2026-05-04 12:07 -4.23901 112.34076 33872 ft 477 kts 251°
2026-05-04 12:07 -4.26063 112.27783 33874 ft 478 kts 251°
2026-05-04 12:08 -4.28216 112.21473 33874 ft 478 kts 251°
2026-05-04 12:08 -4.30372 112.15158 33880 ft 479 kts 251°
2026-05-04 12:09 -4.32520 112.08844 33882 ft 479 kts 251°
2026-05-04 12:09 -4.34668 112.02530 33892 ft 479 kts 251°
2026-05-04 12:10 -4.36809 111.96251 33893 ft 479 kts 251°
2026-05-04 12:10 -4.38954 111.89926 33893 ft 479 kts 251°
2026-05-04 12:11 -4.41112 111.83603 33889 ft 479 kts 251°
2026-05-04 12:11 -4.43266 111.77283 33896 ft 479 kts 251°
2026-05-04 12:12 -4.45414 111.70967 33888 ft 479 kts 251°
2026-05-04 12:12 -4.47560 111.64659 33893 ft 478 kts 251°
2026-05-04 12:14 -4.56149 111.39392 33903 ft 479 kts 251°
2026-05-04 12:15 -4.58294 111.33078 33907 ft 479 kts 251°
2026-05-04 12:15 -4.60436 111.26757 33909 ft 478 kts 251°
2026-05-04 12:16 -4.62557 111.20445 33913 ft 477 kts 251°
2026-05-04 12:16 -4.64612 111.14117 33909 ft 478 kts 252°
2026-05-04 12:17 -4.66633 111.07772 33912 ft 478 kts 252°
2026-05-04 12:17 -4.68659 111.01437 33914 ft 477 kts 252°
2026-05-04 12:18 -4.70695 110.95103 33915 ft 477 kts 252°
2026-05-04 12:18 -4.72730 110.88775 33914 ft 478 kts 252°
2026-05-04 12:19 -4.74767 110.82449 33914 ft 477 kts 251°
2026-05-04 12:19 -4.76800 110.76134 33908 ft 475 kts 252°
2026-05-04 12:20 -4.78823 110.69830 33904 ft 475 kts 252°
2026-05-04 12:20 -4.80831 110.63570 33902 ft 475 kts 252°
2026-05-04 12:21 -4.82866 110.57260 33904 ft 476 kts 252°
2026-05-04 12:21 -4.84900 110.50947 33906 ft 475 kts 252°
2026-05-04 12:22 -4.86930 110.44634 33908 ft 475 kts 252°
2026-05-04 12:22 -4.88924 110.38313 33908 ft 476 kts 253°
2026-05-04 12:23 -4.90862 110.31975 33911 ft 475 kts 253°
2026-05-04 12:23 -4.92793 110.25644 33912 ft 475 kts 252°
2026-05-04 12:24 -4.94725 110.19311 33911 ft 475 kts 253°
2026-05-04 12:24 -4.96661 110.12978 33911 ft 475 kts 252°
2026-05-04 12:25 -4.98606 110.06649 33911 ft 474 kts 253°
2026-05-04 12:25 -5.00525 110.00333 33908 ft 473 kts 253°
2026-05-04 12:26 -5.02449 109.94025 33909 ft 473 kts 253°
2026-05-04 12:26 -5.04388 109.87713 33915 ft 473 kts 253°
2026-05-04 12:27 -5.06316 109.81414 33916 ft 472 kts 253°
2026-05-04 12:27 -5.08244 109.75115 33912 ft 472 kts 253°
2026-05-04 12:28 -5.10164 109.68822 33912 ft 472 kts 253°
2026-05-04 12:28 -5.12070 109.62572 33913 ft 471 kts 253°
2026-05-04 12:29 -5.13990 109.56283 33911 ft 471 kts 253°
2026-05-04 12:29 -5.15904 109.50001 33915 ft 471 kts 253°
2026-05-04 12:30 -5.17823 109.43724 33910 ft 471 kts 253°
2026-05-04 12:30 -5.19738 109.37440 33911 ft 471 kts 253°
2026-05-04 12:31 -5.21645 109.31157 33912 ft 470 kts 253°
2026-05-04 12:31 -5.23565 109.24883 33907 ft 471 kts 253°
2026-05-04 12:32 -5.26435 109.15467 33915 ft 470 kts 253°
2026-05-04 12:33 -5.28344 109.09186 33911 ft 471 kts 253°
2026-05-04 12:33 -5.30267 109.02901 33912 ft 471 kts 252°
2026-05-04 12:34 -5.32313 108.96658 33912 ft 471 kts 251°
2026-05-04 12:34 -5.34422 108.90427 33908 ft 471 kts 251°
2026-05-04 12:35 -5.36510 108.84198 33908 ft 471 kts 252°
2026-05-04 12:35 -5.38544 108.78000 33909 ft 470 kts 252°
2026-05-04 12:36 -5.40587 108.71764 33905 ft 471 kts 252°
2026-05-04 12:36 -5.42640 108.65511 33901 ft 471 kts 252°
2026-05-04 12:37 -5.44707 108.59272 33905 ft 471 kts 252°
2026-05-04 12:37 -5.46765 108.53026 33901 ft 471 kts 252°
2026-05-04 12:38 -5.48831 108.46776 33906 ft 472 kts 252°
2026-05-04 12:38 -5.50896 108.40524 33911 ft 472 kts 252°
2026-05-04 12:38 -5.51928 108.37389 33772 ft 473 kts 252°
2026-05-04 12:39 -5.52957 108.34261 33006 ft 475 kts 252°
2026-05-04 12:39 -5.54027 108.31129 32501 ft 469 kts 248°
2026-05-04 12:39 -5.55467 108.28241 31968 ft 460 kts 237°
2026-05-04 12:39 -5.57373 108.25689 31171 ft 455 kts 226°
2026-05-04 12:40 -5.59696 108.23564 30565 ft 450 kts 216°
2026-05-04 12:40 -5.62263 108.21788 29999 ft 447 kts 213°
2026-05-04 12:40 -5.64788 108.20073 29531 ft 442 kts 213°
2026-05-04 12:40 -5.67325 108.18337 28998 ft 439 kts 213°
2026-05-04 12:41 -5.69837 108.16609 28362 ft 438 kts 213°
2026-05-04 12:41 -5.72323 108.14899 27941 ft 429 kts 213°
2026-05-04 12:41 -5.74776 108.13215 27230 ft 424 kts 213°
2026-05-04 12:41 -5.77188 108.11563 26723 ft 416 kts 213°
2026-05-04 12:42 -5.79576 108.09930 26222 ft 414 kts 213°
2026-05-04 12:42 -5.81953 108.08306 25730 ft 412 kts 213°
2026-05-04 12:42 -5.84311 108.06690 25251 ft 409 kts 213°
2026-05-04 12:42 -5.86656 108.05080 24781 ft 407 kts 213°
2026-05-04 12:43 -5.88986 108.03483 24297 ft 404 kts 213°
2026-05-04 12:43 -5.91295 108.01892 23842 ft 401 kts 215°
2026-05-04 12:43 -5.93343 108.00016 23383 ft 398 kts 229°
2026-05-04 12:43 -5.94881 107.97719 22895 ft 396 kts 243°
2026-05-04 12:44 -5.95838 107.95129 22358 ft 397 kts 257°
2026-05-04 12:44 -5.96169 107.92387 21810 ft 396 kts 270°
2026-05-04 12:44 -5.96166 107.89786 21387 ft 393 kts 270°
2026-05-04 12:44 -5.96163 107.87090 21250 ft 377 kts 270°
2026-05-04 12:45 -5.96163 107.84503 20682 ft 367 kts 270°
2026-05-04 12:45 -5.96163 107.81958 19936 ft 362 kts 270°
2026-05-04 12:45 -5.96162 107.79424 19255 ft 367 kts 270°
2026-05-04 12:45 -5.96164 107.76835 18728 ft 373 kts 270°
2026-05-04 12:46 -5.96165 107.74230 18217 ft 373 kts 270°
2026-05-04 12:46 -5.96164 107.71617 17702 ft 374 kts 270°
2026-05-04 12:46 -5.96164 107.69028 17365 ft 369 kts 270°
2026-05-04 12:46 -5.96165 107.66479 17184 ft 360 kts 270°
2026-05-04 12:47 -5.96166 107.64013 16893 ft 348 kts 269°
2026-05-04 12:47 -5.96167 107.61625 16333 ft 344 kts 270°
2026-05-04 12:47 -5.96171 107.59244 15759 ft 338 kts 269°
2026-05-04 12:47 -5.96181 107.56906 15288 ft 335 kts 270°
2026-05-04 12:48 -5.96183 107.54563 14857 ft 335 kts 270°
2026-05-04 12:48 -5.96180 107.52243 14406 ft 331 kts 270°
2026-05-04 12:48 -5.96176 107.49940 13947 ft 327 kts 270°
2026-05-04 12:48 -5.96171 107.47668 13416 ft 324 kts 270°
2026-05-04 12:49 -5.96170 107.45408 13004 ft 322 kts 270°
2026-05-04 12:49 -5.96171 107.43172 12513 ft 319 kts 270°
2026-05-04 12:49 -5.96171 107.40962 12055 ft 314 kts 270°
2026-05-04 12:49 -5.96169 107.38779 11602 ft 312 kts 270°
2026-05-04 12:50 -5.96166 107.36603 11177 ft 312 kts 270°
2026-05-04 12:50 -5.96164 107.34459 11041 ft 302 kts 270°
2026-05-04 12:50 -5.96164 107.32385 10910 ft 292 kts 270°
2026-05-04 12:50 -5.96165 107.30388 10854 ft 285 kts 271°
2026-05-04 12:51 -5.96160 107.28385 10401 ft 286 kts 270°
2026-05-04 12:51 -5.96155 107.26367 10104 ft 288 kts 270°
2026-05-04 12:51 -5.96156 107.24383 9644 ft 280 kts 269°
2026-05-04 12:51 -5.96160 107.23088 9236 ft 282 kts 270°
2026-05-04 12:52 -5.96156 107.21128 8786 ft 279 kts 270°
2026-05-04 12:52 -5.96151 107.19188 8350 ft 276 kts 269°
2026-05-04 12:52 -5.96150 107.17263 7945 ft 275 kts 270°
2026-05-04 12:52 -5.96157 107.15346 7537 ft 274 kts 270°
2026-05-04 12:53 -5.96157 107.13425 7153 ft 273 kts 270°
2026-05-04 12:53 -5.96149 107.11564 7089 ft 261 kts 270°
2026-05-04 12:53 -5.96322 107.09769 6983 ft 257 kts 254°
2026-05-04 12:53 -5.96931 107.08067 6599 ft 259 kts 248°
2026-05-04 12:54 -5.97589 107.06389 6237 ft 258 kts 247°
2026-05-04 12:54 -5.98246 107.04721 5872 ft 255 kts 248°
2026-05-04 12:54 -5.98896 107.03064 5515 ft 254 kts 248°
2026-05-04 12:54 -5.99509 107.01406 5165 ft 252 kts 249°
2026-05-04 12:55 -6.00130 106.99765 4824 ft 251 kts 248°
2026-05-04 12:55 -6.00775 106.98144 4471 ft 249 kts 247°
2026-05-04 12:55 -6.01419 106.96535 4164 ft 246 kts 247°
2026-05-04 12:55 -6.02055 106.94945 4024 ft 245 kts 247°
2026-05-04 12:56 -6.02690 106.93354 4028 ft 246 kts 247°
2026-05-04 12:56 -6.03325 106.91765 4030 ft 245 kts 247°
2026-05-04 12:56 -6.03958 106.90180 4031 ft 245 kts 247°
2026-05-04 12:56 -6.04578 106.88628 4029 ft 237 kts 247°
2026-05-04 12:57 -6.05169 106.87142 3999 ft 224 kts 247°
2026-05-04 12:57 -6.05752 106.85683 3816 ft 219 kts 246°
2026-05-04 12:57 -6.06311 106.84285 3544 ft 214 kts 246°
2026-05-04 12:57 -6.06861 106.82907 3250 ft 210 kts 246°
2026-05-04 12:58 -6.07398 106.81562 2974 ft 205 kts 246°
2026-05-04 12:58 -6.07916 106.80263 2702 ft 200 kts 246°
2026-05-04 12:58 -6.08418 106.79004 2451 ft 189 kts 246°
2026-05-04 12:58 -6.08893 106.77812 2190 ft 178 kts 246°
2026-05-04 12:59 -6.09339 106.76695 1989 ft 165 kts 246°
2026-05-04 12:59 -6.09759 106.75642 1770 ft 160 kts 246°
2026-05-04 12:59 -6.10168 106.74617 1556 ft 157 kts 246°
2026-05-04 12:59 -6.10572 106.73605 1348 ft 155 kts 246°
2026-05-04 13:00 -6.10972 106.72604 1144 ft 154 kts 246°
2026-05-04 13:00 -6.11367 106.71611 939 ft 153 kts 246°
2026-05-04 13:00 -6.11764 106.70619 737 ft 153 kts 246°
2026-05-04 13:00 -6.12158 106.69628 531 ft 152 kts 246°
2026-05-04 13:01 -6.12551 106.68644 334 ft 152 kts 246°
2026-05-04 13:01 -6.12943 106.67658 165 ft 151 kts 247°
2026-05-04 13:01 -6.13325 106.66687 54 ft 141 kts 246°
2026-05-04 13:01 -6.13651 106.65871 38 ft 104 kts 249°
2026-05-04 13:02 -6.13856 106.65355 39 ft 47 kts 248°
2026-05-04 13:02 -6.13905 106.65180 40 ft 15 kts 279°
2026-05-04 13:02 -6.13886 106.65098 39 ft 8 kts 281°
2026-05-04 13:02 -6.13878 106.65047 40 ft 7 kts 279°
2026-05-04 13:03 -6.13876 106.65033 39 ft 0 kts 279°
2026-05-04 13:03 -6.13862 106.65009 39 ft 4 kts 310°
2026-05-04 13:03 -6.13840 106.64993 39 ft 4 kts 333°
2026-05-04 13:04 -6.13797 106.64974 37 ft 11 kts 337°
2026-05-04 13:04 -6.13738 106.64958 39 ft 7 kts
2026-05-04 13:04 -6.13702 106.64997 38 ft 10 kts 66°
2026-05-04 13:04 -6.13682 106.65050 37 ft 9 kts 69°
2026-05-04 13:05 -6.13652 106.65124 38 ft 12 kts 68°
2026-05-04 13:05 -6.13618 106.65211 38 ft 14 kts 68°
2026-05-04 13:05 -6.13579 106.65306 37 ft 16 kts 67°
2026-05-04 13:05 -6.13536 106.65414 38 ft 14 kts 68°
2026-05-04 13:06 -6.13506 106.65488 38 ft 9 kts 68°
2026-05-04 13:06 -6.13485 106.65542 38 ft 7 kts 69°
2026-05-04 13:06 -6.13470 106.65580 38 ft 5 kts 69°
2026-05-04 13:06 -6.13436 106.65619 38 ft 11 kts 18°
2026-05-04 13:07 -6.13381 106.65593 38 ft 8 kts 312°
2026-05-04 13:07 -6.13341 106.65543 38 ft 11 kts 307°
2026-05-04 13:07 -6.13299 106.65488 38 ft 9 kts 308°
2026-05-04 13:07 -6.13274 106.65442 38 ft 7 kts 287°
2026-05-04 13:08 -6.13272 106.65393 36 ft 7 kts 261°
2026-05-04 13:08 -6.13290 106.65346 38 ft 10 kts 248°
2026-05-04 13:08 -6.13313 106.65289 38 ft 8 kts 247°
2026-05-04 13:08 -6.13331 106.65245 38 ft 6 kts 251°
2026-05-04 13:09 -6.13333 106.65194 38 ft 7 kts 287°
2026-05-04 13:09 -6.13300 106.65175 38 ft 5 kts
2026-05-04 13:09 -6.13274 106.65186 38 ft 3 kts 27°
2026-05-04 13:09 -6.13258 106.65195 38 ft 2 kts 29°
2026-05-04 13:10 -6.13253 106.65198 38 ft 0 kts 29°
2026-05-04 13:10 -6.13250 106.65199 37 ft 1 kts 29°